FW4465 Weather Reports


Display with metric or nautical units.
time (UTC)temp
F
wind
direction
speed
MPH
gust
MPH
rain 1hr
in
rain 24hr
in
rain mn
in
humidity
%
barometer
mb
20260506013051 50 117 0.0 0.0 0.00 0.11 0.00 85 1006.3
20260506011603 50 117 0.0 0.0 0.00 0.11 0.00 85 1006.2
20260506010056 51 117 0.0 0.0 0.00 0.11 0.00 85 1006.2
20260506004603 51 117 0.0 0.0 0.00 0.11 0.00 85 1006.1
20260506003056 52 117 0.0 2.0 0.00 0.11 0.00 85 1006.5
20260506001541 52 161 0.0 1.0 0.00 0.11 0.00 85 1006.5
20260506000040 52 163 0.0 0.0 0.00 0.11 0.00 85 1006.7
20260505234558 52 163 0.0 0.0 0.00 0.11 0.00 85 1006.8
20260505233039 52 163 0.0 0.0 0.00 0.11 0.00 85 1006.9
20260505231536 52 163 0.0 1.0 0.00 0.11 0.00 85 1006.9
20260505230041 52 163 0.0 0.0 0.00 0.11 0.00 85 1006.9
20260505224539 53 163 0.0 0.0 0.00 0.11 0.00 85 1006.9
20260505223034 53 163 0.0 0.0 0.00 0.11 0.00 85 1006.8
20260505221531 53 163 0.0 0.0 0.00 0.11 0.00 85 1006.8
20260505220041 54 163 0.0 0.0 0.00 0.11 0.11 85 1006.7
20260505214536 54 163 0.0 0.0 0.00 0.11 0.11 85 1006.9
20260505213028 53 163 0.0 0.0 0.00 0.11 0.11 85 1007.0
20260505211521 53 163 0.0 0.0 0.00 0.11 0.11 85 1007.0
20260505210020 53 163 0.0 0.0 0.00 0.11 0.11 85 1007.0
20260505204519 54 163 0.0 0.0 0.00 0.11 0.11 85 1006.8
20260505201524 55 163 0.0 0.0 0.00 0.11 0.11 85 1006.6
20260505200021 56 163 0.0 1.0 0.00 0.11 0.11 85 1006.6
20260505194531 56 163 0.0 1.0 0.00 0.11 0.11 85 1006.3
20260505193034 56 164 0.0 1.0 0.00 0.11 0.11 85 1006.2
20260505191520 56 164 0.0 3.0 0.00 0.11 0.11 84 1006.0
20260505190021 57 168 0.0 0.0 0.00 0.11 0.11 85 1005.9
20260505184520 57 168 0.0 1.0 0.00 0.11 0.11 85 1006.0
20260505183023 57 220 0.0 0.0 0.00 0.11 0.11 84 1006.0
20260505181517 58 220 0.0 0.0 0.00 0.11 0.11 84 1005.7
20260505180013 58 220 0.0 1.0 0.00 0.11 0.11 84 1005.7
20260505174522 58 220 0.0 0.0 0.00 0.11 0.11 83 1005.7
20260505173011 58 220 0.0 2.0 0.00 0.11 0.11 83 1006.1
20260505171519 58 346 0.0 0.0 0.00 0.11 0.11 83 1006.0
20260505164519 59 346 0.0 0.0 0.00 0.11 0.11 83 1005.7
20260505161511 58 346 0.0 0.0 0.00 0.11 0.11 83 1005.7
20260505153015 58 277 0.0 2.0 0.00 0.11 0.11 84 1005.8
20260505151511 57 276 0.0 0.0 0.00 0.11 0.11 84 1006.2
20260505124521 66 336 0.0 12.0 0.00 0.00 0.00 64 1006.0
20260505121527 68 290 0.0 3.0 0.00 0.00 0.00 61 1005.7
20260505120030 68 296 0.0 3.0 0.00 0.00 0.00 61 1005.7
20260505114526 68 292 0.0 2.0 0.00 0.00 0.00 61 1005.6
20260505113033 68 294 0.0 1.0 0.00 0.00 0.00 61 1005.8
20260505111539 68 293 0.0 3.0 0.00 0.00 0.00 61 1005.8
20260505101514 69 307 0.0 8.0 0.00 0.00 0.00 62 1006.4
20260505100011 68 261 0.0 6.0 0.00 0.00 0.00 63 1006.4
20260505094539 68 337 0.0 4.0 0.00 0.00 0.00 62 1006.5
20260505093037 68 273 0.0 5.0 0.00 0.00 0.00 61 1006.6
20260505091534 67 287 0.0 6.0 0.00 0.00 0.00 65 1006.8
20260505090033 66 229 0.0 3.0 0.00 0.00 0.00 65 1006.9
20260505084525 66 279 0.0 5.0 0.00 0.00 0.00 68 1006.9
20260505081528 63 213 0.0 0.0 0.00 0.00 0.00 72 1007.2
20260505080030 62 211 0.0 2.0 0.00 0.00 0.00 74 1007.4
20260505074548 61 305 0.0 2.0 0.00 0.00 0.00 75 1007.5
20260505071552 60 278 0.0 3.0 0.00 0.00 0.00 75 1007.5
20260505070150 60 232 0.0 1.0 0.00 0.00 0.00 77 1007.6
20260505064557 59 228 0.0 0.0 0.00 0.00 0.00 78 1007.7
20260505063051 57 228 0.0 2.0 0.00 0.00 0.00 80 1007.8
20260505061543 57 225 0.0 0.0 0.00 0.00 0.00 81 1007.9
20260505060039 56 225 0.0 0.0 0.00 0.00 0.00 82 1008.0
20260505054538 55 225 0.0 0.0 0.00 0.00 0.00 82 1008.0
20260505053036 55 225 0.0 0.0 0.00 0.00 0.00 82 1008.1
20260505051536 55 225 0.0 0.0 0.00 0.00 0.00 82 1008.2
20260505041531 54 300 0.0 0.0 0.00 0.00 0.00 82 1008.1
20260505040021 54 300 0.0 0.0 0.00 0.00 0.00 81 1008.1
20260505034519 54 300 0.0 1.0 0.00 0.00 0.00 81 1008.1
20260505033020 55 300 0.0 0.0 0.00 0.00 0.00 80 1008.1
20260505031517 55 300 0.0 0.0 0.00 0.00 0.00 79 1008.4
20260505030013 55 300 0.0 0.0 0.00 0.00 0.00 79 1008.6
20260505024531 56 300 0.0 0.0 0.00 0.00 0.00 79 1008.7
20260505023008 56 300 0.0 0.0 0.00 0.00 0.00 78 1008.7
20260505021504 57 300 0.0 0.0 0.00 0.00 0.00 77 1009.1
20260505020004 57 300 0.0 0.0 0.00 0.00 0.00 77 1009.2
20260505014542 57 300 0.0 0.0 0.00 0.00 0.00 76 1009.4